,,,PA_Meas_PMT16A,,PR_Meas_QMR101_102,,RH_Meas_QMH101,,SR_Meas_QMS101,,TA_Meas_QMH101,,GenWind,,GenWind,
date,time,status,PA,status,PR,status,RH,status,SR,status,TA,status,DirAvg,status,SpdAvg,
2008-03-16, 00:00:04,VALID,1003.93,VALID,0,VALID,85.3672,VALID,0,VALID,25.5941,VALID,349,VALID,0.544922,
2008-03-16, 00:01:04,VALID,1003.91,VALID,0,VALID,85.9546,VALID,0,VALID,25.5765,VALID,349,VALID,0.389844,
2008-03-16, 00:02:04,VALID,1003.88,VALID,0,VALID,86.1529,VALID,0,VALID,25.4986,VALID,349,VALID,0.631641,
2008-03-16, 00:03:04,VALID,1003.88,VALID,0,VALID,86.8472,VALID,0,VALID,25.4012,VALID,358,VALID,0.673437,
2008-03-16, 00:04:04,VALID,1003.87,VALID,0,VALID,85.9012,VALID,0,VALID,25.3428,VALID,347,VALID,1.08555,
2008-03-16, 00:05:04,VALID,1003.84,VALID,0,VALID,86.7099,VALID,0,VALID,25.4227,VALID,30,VALID,0.489844,
2008-03-16, 00:06:04,VALID,1003.8,VALID,0,VALID,85.8325,VALID,0,VALID,25.4012,VALID,18,VALID,0.174219,
2008-03-16, 00:07:04,VALID,1003.79,VALID,0,VALID,86.0919,VALID,0,VALID,25.4207,VALID,18,VALID,0.141406,
2008-03-16, 00:08:04,VALID,1003.78,VALID,0,VALID,86.1835,VALID,0,VALID,25.4188,VALID,2,VALID,0.553906,
2008-03-16, 00:09:04,VALID,1003.77,VALID,0,VALID,86.8319,VALID,0,VALID,25.4188,VALID,15,VALID,1.12617,
2008-03-16, 00:10:04,VALID,1003.75,VALID,0,VALID,87.1066,VALID,0,VALID,25.3604,VALID,5,VALID,0.656641,
2008-03-16, 00:11:04,VALID,1003.74,VALID,0,VALID,87.4956,VALID,0,VALID,25.263,VALID,353,VALID,0.736719,
2008-03-16, 00:12:04,VALID,1003.77,VALID,0,VALID,88.2661,VALID,0,VALID,25.1851,VALID,351,VALID,0.703516,
2008-03-16, 00:13:04,VALID,1003.71,VALID,0,VALID,88.7162,VALID,0,VALID,25.0682,VALID,349,VALID,0.587891,
2008-03-16, 00:14:04,VALID,1003.7,VALID,0,VALID,89.3647,VALID,0,VALID,24.9709,VALID,349,VALID,0.697266,
2008-03-16, 00:15:04,VALID,1003.69,VALID,0,VALID,89.4868,VALID,0,VALID,24.893,VALID,346,VALID,0.811328,
2008-03-16, 00:16:04,VALID,1003.68,VALID,0,VALID,89.8453,VALID,0,VALID,24.8346,VALID,355,VALID,0.616797,
2008-03-16, 00:17:04,VALID,1003.67,VALID,0,VALID,90.0208,VALID,0,VALID,24.7743,VALID,347,VALID,0.778125,
2008-03-16, 00:18:04,VALID,1003.67,VALID,0,VALID,90.1581,VALID,0,VALID,24.7761,VALID,339,VALID,0.559375,
2008-03-16, 00:19:04,VALID,1003.66,VALID,0,VALID,90.4709,VALID,0,VALID,24.7567,VALID,350,VALID,0.727734,
2008-03-16, 00:20:04,VALID,1003.65,VALID,0,VALID,90.654,VALID,0,VALID,24.7159,VALID,352,VALID,0.752344,
2008-03-16, 00:21:04,VALID,1003.68,VALID,0,VALID,90.7913,VALID,0,VALID,24.6788,VALID,354,VALID,0.674609,
2008-03-16, 00:22:04,VALID,1003.67,VALID,0,VALID,90.3336,VALID,0,VALID,24.7001,VALID,360,VALID,0.817969,
2008-03-16, 00:23:04,VALID,1003.67,VALID,0,VALID,90.4251,VALID,0,VALID,24.7586,VALID,5,VALID,0.538281,
2008-03-16, 00:24:04,VALID,1003.67,VALID,0,VALID,90.2573,VALID,0,VALID,24.778,VALID,1,VALID,0.691406,
2008-03-16, 00:25:04,VALID,1003.65,VALID,0,VALID,90.1886,VALID,0,VALID,24.7567,VALID,360,VALID,0.442578,
2008-03-16, 00:26:04,VALID,1003.64,VALID,0,VALID,90.0742,VALID,0,VALID,24.778,VALID,360,VALID,0.478906,
2008-03-16, 00:27:04,VALID,1003.66,VALID,0,VALID,89.853,VALID,0,VALID,24.817,VALID,352,VALID,0.41875,
2008-03-16, 00:28:04,VALID,1003.66,VALID,0,VALID,89.3342,VALID,0,VALID,24.8559,VALID,351,VALID,0.781641,
2008-03-16, 00:29:04,VALID,1003.67,VALID,0,VALID,88.64,VALID,0,VALID,24.9747,VALID,350,VALID,0.538672,
2008-03-16, 00:30:04,VALID,1003.67,VALID,0,VALID,88.3272,VALID,0,VALID,25.0507,VALID,350,VALID,0.613672,
2008-03-16, 00:31:04,VALID,1003.66,VALID,0,VALID,87.7245,VALID,0,VALID,25.1091,VALID,349,VALID,0.580078,
2008-03-16, 00:32:04,VALID,1003.63,VALID,0,VALID,87.6253,VALID,0,VALID,25.1889,VALID,345,VALID,0.717188,
2008-03-16, 00:33:04,VALID,1003.63,VALID,0,VALID,88.2509,VALID,0,VALID,25.1675,VALID,354,VALID,0.575,
2008-03-16, 00:34:04,VALID,1003.6,VALID,0,VALID,88.3195,VALID,0,VALID,25.148,VALID,321,VALID,0.307813,
2008-03-16, 00:35:04,VALID,1003.6,VALID,0,VALID,88.762,VALID,0,VALID,25.1091,VALID,321,VALID,0,
2008-03-16, 00:36:04,VALID,1003.57,VALID,0,VALID,88.8536,VALID,0,VALID,25.1091,VALID,283,VALID,0.233203,
2008-03-16, 00:37:04,VALID,1003.57,VALID,0,VALID,88.8917,VALID,0,VALID,25.0896,VALID,317,VALID,0.164063,
2008-03-16, 00:38:04,VALID,1003.58,VALID,0,VALID,89.0443,VALID,0,VALID,25.0701,VALID,355,VALID,0.414063,
2008-03-16, 00:39:04,VALID,1003.58,VALID,0,VALID,89.0672,VALID,0,VALID,25.0312,VALID,349,VALID,0.430469,
2008-03-16, 00:40:04,VALID,1003.58,VALID,0,VALID,89.3876,VALID,0,VALID,25.0117,VALID,349,VALID,0.379687,
2008-03-16, 00:41:04,VALID,1003.54,VALID,0,VALID,89.6546,VALID,0,VALID,24.9922,VALID,349,VALID,0.00351562,
2008-03-16, 00:42:04,VALID,1003.57,VALID,0,VALID,89.7919,VALID,0,VALID,24.9728,VALID,345,VALID,0.0765625,
2008-03-16, 00:43:04,VALID,1003.54,VALID,0,VALID,89.6775,VALID,0,VALID,24.9728,VALID,348,VALID,0.448828,
2008-03-16, 00:44:04,VALID,1003.52,VALID,0,VALID,89.7538,VALID,0,VALID,24.9514,VALID,347,VALID,0.0488281,
2008-03-16, 00:45:04,VALID,1003.49,VALID,0,VALID,89.8224,VALID,0,VALID,24.9922,VALID,347,VALID,0,
2008-03-16, 00:46:04,VALID,1003.5,VALID,0,VALID,89.853,VALID,0,VALID,24.9728,VALID,347,VALID,0,
2008-03-16, 00:47:04,VALID,1003.5,VALID,0,VALID,89.8224,VALID,0,VALID,24.9728,VALID,347,VALID,0.0523437,
2008-03-16, 00:48:04,VALID,1003.52,VALID,0,VALID,89.5707,VALID,0,VALID,24.9728,VALID,353,VALID,0.728125,
2008-03-16, 00:49:04,VALID,1003.56,VALID,0,VALID,89.5478,VALID,0,VALID,24.9922,VALID,349,VALID,0.356641,
2008-03-16, 00:50:04,VALID,1003.58,VALID,0,VALID,89.3647,VALID,0,VALID,24.9728,VALID,354,VALID,0.359375,
2008-03-16, 00:51:04,VALID,1003.55,VALID,0,VALID,89.1282,VALID,0,VALID,24.9922,VALID,352,VALID,0.173828,
2008-03-16, 00:52:04,VALID,1003.56,VALID,0,VALID,88.7315,VALID,0,VALID,25.0312,VALID,340,VALID,0.569922,
2008-03-16, 00:53:04,VALID,1003.55,VALID,0,VALID,88.3806,VALID,0,VALID,25.0488,VALID,343,VALID,0.678906,
2008-03-16, 00:54:04,VALID,1003.55,VALID,0,VALID,88.1288,VALID,0,VALID,25.1091,VALID,328,VALID,0.694141,
2008-03-16, 00:55:04,VALID,1003.53,VALID,0,VALID,87.8084,VALID,0,VALID,25.1675,VALID,348,VALID,0.864844,
2008-03-16, 00:56:04,VALID,1003.52,VALID,0,VALID,87.427,VALID,0,VALID,25.224,VALID,346,VALID,0.796094,
2008-03-16, 00:57:04,VALID,1003.5,VALID,0,VALID,86.809,VALID,0,VALID,25.3039,VALID,351,VALID,1.13359,
2008-03-16, 00:58:04,VALID,1003.47,VALID,0,VALID,86.2064,VALID,0,VALID,25.3409,VALID,349,VALID,1.29414,
2008-03-16, 00:59:04,VALID,1003.46,VALID,0,VALID,85.9317,VALID,0,VALID,25.4402,VALID,351,VALID,0.865625,
2008-03-16, 01:00:04,VALID,1003.43,VALID,0,VALID,85.4816,VALID,0,VALID,25.5181,VALID,325,VALID,0.744531,
2008-03-16, 01:01:04,VALID,1003.4,VALID,0,VALID,85.268,VALID,0,VALID,25.5571,VALID,348,VALID,0.421094,
2008-03-16, 01:02:04,VALID,1003.43,VALID,0,VALID,85.2222,VALID,0,VALID,25.596,VALID,343,VALID,0.000390625,
2008-03-16, 01:03:04,VALID,1003.4,VALID,0,VALID,85.3824,VALID,0,VALID,25.5746,VALID,348,VALID,0.660547,
2008-03-16, 01:04:04,VALID,1003.38,VALID,0,VALID,85.2527,VALID,0,VALID,25.5746,VALID,344,VALID,0.532031,
2008-03-16, 01:05:04,VALID,1003.36,VALID,0,VALID,85.1307,VALID,0,VALID,25.5941,VALID,342,VALID,0.522266,
2008-03-16, 01:06:04,VALID,1003.35,VALID,0,VALID,84.9476,VALID,0,VALID,25.6155,VALID,335,VALID,0.719531,
2008-03-16, 01:07:04,VALID,1003.31,VALID,0,VALID,84.9476,VALID,0,VALID,25.635,VALID,350,VALID,0.847656,
2008-03-16, 01:08:04,VALID,1003.32,VALID,0,VALID,85.5579,VALID,0,VALID,25.6136,VALID,342,VALID,0.712891,
2008-03-16, 01:09:04,VALID,1003.33,VALID,0,VALID,85.596,VALID,0,VALID,25.596,VALID,357,VALID,0.825781,
2008-03-16, 01:10:04,VALID,1003.36,VALID,0,VALID,85.5121,VALID,0,VALID,25.5571,VALID,355,VALID,0.659766,
2008-03-16, 01:11:04,VALID,1003.33,VALID,0,VALID,85.7486,VALID,0,VALID,25.5571,VALID,333,VALID,0.657812,
2008-03-16, 01:12:04,VALID,1003.34,VALID,0,VALID,85.7181,VALID,0,VALID,25.4967,VALID,342,VALID,0.482812,
2008-03-16, 01:13:04,VALID,1003.33,VALID,0,VALID,85.5579,VALID,0,VALID,25.4772,VALID,337,VALID,0.896094,
2008-03-16, 01:14:04,VALID,1003.3,VALID,0,VALID,85.6494,VALID,0,VALID,25.5181,VALID,350,VALID,0.640234,
2008-03-16, 01:15:04,VALID,1003.35,VALID,0,VALID,85.1841,VALID,0,VALID,25.5181,VALID,341,VALID,0.5875,
2008-03-16, 01:16:04,VALID,1003.32,VALID,0,VALID,85.3061,VALID,0,VALID,25.5376,VALID,346,VALID,0.790625,
2008-03-16, 01:17:04,VALID,1003.3,VALID,0,VALID,85.4587,VALID,0,VALID,25.5357,VALID,325,VALID,0.694922,
2008-03-16, 01:18:04,VALID,1003.3,VALID,0,VALID,85.7257,VALID,0,VALID,25.5357,VALID,348,VALID,0.765234,
2008-03-16, 01:19:04,VALID,1003.26,VALID,0,VALID,85.9012,VALID,0,VALID,25.5376,VALID,352,VALID,0.715625,
2008-03-16, 01:20:04,VALID,1003.24,VALID,0,VALID,86.1072,VALID,0,VALID,25.4967,VALID,352,VALID,0.525391,
2008-03-16, 01:21:04,VALID,1003.2,VALID,0,VALID,86.5268,VALID,0,VALID,25.4986,VALID,353,VALID,0.00585938,
2008-03-16, 01:22:04,VALID,1003.19,VALID,0,VALID,86.6565,VALID,0,VALID,25.4577,VALID,353,VALID,0.330859,
2008-03-16, 01:23:04,VALID,1003.17,VALID,0,VALID,86.4734,VALID,0,VALID,25.4792,VALID,300,VALID,0.0128906,
2008-03-16, 01:24:04,VALID,1003.23,VALID,0,VALID,86.4886,VALID,0,VALID,25.4792,VALID,300,VALID,0.00429688,
2008-03-16, 01:25:04,VALID,1003.23,VALID,0,VALID,86.3208,VALID,0,VALID,25.4383,VALID,300,VALID,0,
2008-03-16, 01:26:04,VALID,1003.24,VALID,0,VALID,86.5496,VALID,0,VALID,25.4597,VALID,300,VALID,0,
2008-03-16, 01:27:04,VALID,1003.29,VALID,0,VALID,86.6793,VALID,0,VALID,25.4402,VALID,300,VALID,0.0105469,
2008-03-16, 01:28:04,VALID,1003.33,VALID,0,VALID,86.481,VALID,0,VALID,25.4188,VALID,300,VALID,0,
2008-03-16, 01:29:04,VALID,1003.35,VALID,0,VALID,87.1294,VALID,0,VALID,25.4402,VALID,201,VALID,0.564062,
2008-03-16, 01:30:04,VALID,1003.39,VALID,0,VALID,87.0913,VALID,0,VALID,25.3993,VALID,139,VALID,1.15469,
2008-03-16, 01:31:04,VALID,1003.41,VALID,0,VALID,87.6482,VALID,0,VALID,25.3409,VALID,142,VALID,1.22266,
2008-03-16, 01:32:04,VALID,1003.43,VALID,0,VALID,87.5338,VALID,0,VALID,25.3019,VALID,138,VALID,1.26875,
2008-03-16, 01:33:04,VALID,1003.43,VALID,0,VALID,87.9152,VALID,0,VALID,25.263,VALID,181,VALID,1.48477,
2008-03-16, 01:34:04,VALID,1003.42,VALID,0,VALID,88.0373,VALID,0,VALID,25.2046,VALID,188,VALID,1.31484,
2008-03-16, 01:35:04,VALID,1003.42,VALID,0,VALID,88.1899,VALID,0,VALID,25.1851,VALID,194,VALID,1.31992,
2008-03-16, 01:36:04,VALID,1003.41,VALID,0,VALID,88.6857,VALID,0,VALID,25.1248,VALID,212,VALID,0.742969,
2008-03-16, 01:37:04,VALID,1003.37,VALID,0,VALID,88.9909,VALID,0,VALID,25.0877,VALID,216,VALID,0.713281,
2008-03-16, 01:38:04,VALID,1003.34,VALID,0,VALID,89.1511,VALID,0,VALID,25.0701,VALID,229,VALID,0.782422,
2008-03-16, 01:39:04,VALID,1003.3,VALID,0,VALID,89.4257,VALID,0,VALID,25.0293,VALID,214,VALID,0.228516,
2008-03-16, 01:40:04,VALID,1003.29,VALID,0,VALID,89.4181,VALID,0,VALID,25.0098,VALID,214,VALID,0.114844,
2008-03-16, 01:41:04,VALID,1003.24,VALID,0,VALID,89.6088,VALID,0,VALID,25.0098,VALID,203,VALID,0.199609,
2008-03-16, 01:42:04,VALID,1003.23,VALID,0,VALID,89.7996,VALID,0,VALID,25.0098,VALID,203,VALID,0.0683594,
2008-03-16, 01:43:04,VALID,1003.22,VALID,0,VALID,89.9292,VALID,0,VALID,25.0293,VALID,208,VALID,0.112109,
2008-03-16, 01:44:04,VALID,1003.23,VALID,0,VALID,89.8987,VALID,0,VALID,25.0488,VALID,208,VALID,0.0535156,
2008-03-16, 01:45:04,VALID,1003.23,VALID,0,VALID,89.7156,VALID,0,VALID,25.0488,VALID,209,VALID,0.0539063,
2008-03-16, 01:46:04,VALID,1003.26,VALID,0,VALID,89.6165,VALID,0,VALID,25.0896,VALID,208,VALID,0.225,
2008-03-16, 01:47:04,VALID,1003.26,VALID,0,VALID,89.6851,VALID,0,VALID,25.1091,VALID,208,VALID,0.555078,
2008-03-16, 01:48:04,VALID,1003.25,VALID,0,VALID,89.8835,VALID,0,VALID,25.148,VALID,208,VALID,0.05625,
2008-03-16, 01:49:04,VALID,1003.25,VALID,0,VALID,90.0971,VALID,0,VALID,25.1656,VALID,208,VALID,0,
2008-03-16, 01:50:04,VALID,1003.27,VALID,0,VALID,90.3717,VALID,0,VALID,25.187,VALID,208,VALID,0.290625,
2008-03-16, 01:51:04,VALID,1003.27,VALID,0,VALID,90.448,VALID,0,VALID,25.2046,VALID,208,VALID,0.133203,
2008-03-16, 01:52:04,VALID,1003.26,VALID,0,VALID,90.5777,VALID,0,VALID,25.2454,VALID,214,VALID,0.469141,
2008-03-16, 01:53:04,VALID,1003.23,VALID,0,VALID,90.6235,VALID,0,VALID,25.2844,VALID,217,VALID,0.886328,
2008-03-16, 01:54:04,VALID,1003.22,VALID,0,VALID,90.6464,VALID,0,VALID,25.3214,VALID,192,VALID,0.705078,
2008-03-16, 01:55:04,VALID,1003.18,VALID,0,VALID,90.6158,VALID,0,VALID,25.3623,VALID,203,VALID,0.0191406,
2008-03-16, 01:56:04,VALID,1003.17,VALID,0,VALID,90.5777,VALID,0,VALID,25.3818,VALID,203,VALID,0.170312,
2008-03-16, 01:57:04,VALID,1003.18,VALID,0,VALID,90.0742,VALID,0,VALID,25.3604,VALID,175,VALID,0.309375,
2008-03-16, 01:58:04,VALID,1003.18,VALID,0,VALID,90.1047,VALID,0,VALID,25.3604,VALID,175,VALID,0.0804688,
2008-03-16, 01:59:04,VALID,1003.2,VALID,0,VALID,90.1734,VALID,0,VALID,25.3818,VALID,175,VALID,0.00234375,
2008-03-16, 02:00:04,VALID,1003.19,VALID,0,VALID,89.9292,VALID,0,VALID,25.3798,VALID,175,VALID,0,
2008-03-16, 02:01:04,VALID,1003.22,VALID,0,VALID,89.7843,VALID,0,VALID,25.3798,VALID,159,VALID,0.483203,
2008-03-16, 02:02:04,VALID,1003.26,VALID,0,VALID,89.8911,VALID,0,VALID,25.3993,VALID,172,VALID,0.175,
2008-03-16, 02:03:04,VALID,1003.28,VALID,0,VALID,89.9598,VALID,0,VALID,25.3993,VALID,167,VALID,0.332812,
2008-03-16, 02:04:04,VALID,1003.3,VALID,0,VALID,90.0284,VALID,0,VALID,25.4188,VALID,176,VALID,0.754297,
2008-03-16, 02:05:04,VALID,1003.31,VALID,0,VALID,90.0284,VALID,0,VALID,25.4188,VALID,178,VALID,0.150781,
2008-03-16, 02:06:04,VALID,1003.29,VALID,0,VALID,90.0971,VALID,0,VALID,25.4188,VALID,178,VALID,0.188281,
2008-03-16, 02:07:04,VALID,1003.28,VALID,0,VALID,90.4785,VALID,0,VALID,25.4188,VALID,164,VALID,0.471875,
2008-03-16, 02:08:04,VALID,1003.29,VALID,0,VALID,90.3717,VALID,0,VALID,25.4402,VALID,121,VALID,1.03125,
2008-03-16, 02:09:04,VALID,1003.31,VALID,0,VALID,90.4785,VALID,0,VALID,25.4012,VALID,94,VALID,0.832812,
2008-03-16, 02:10:04,VALID,1003.35,VALID,0,VALID,90.5624,VALID,0,VALID,25.3409,VALID,123,VALID,0.911719,
2008-03-16, 02:11:04,VALID,1003.39,VALID,0,VALID,90.8295,VALID,0,VALID,25.3214,VALID,139,VALID,0.991406,
2008-03-16, 02:12:04,VALID,1003.46,VALID,0,VALID,90.9668,VALID,0,VALID,25.3233,VALID,137,VALID,1.26172,
2008-03-16, 02:13:04,VALID,1003.48,VALID,0,VALID,90.9897,VALID,0,VALID,25.3039,VALID,124,VALID,1.51719,
2008-03-16, 02:14:04,VALID,1003.51,VALID,0,VALID,91.394,VALID,0,VALID,25.2825,VALID,142,VALID,2.31094,
2008-03-16, 02:15:04,VALID,1003.5,VALID,0,VALID,91.3101,VALID,0,VALID,25.3019,VALID,142,VALID,1.80859,
2008-03-16, 02:16:04,VALID,1003.45,VALID,0,VALID,90.9286,VALID,0,VALID,25.3428,VALID,136,VALID,1.35898,
2008-03-16, 02:17:04,VALID,1003.46,VALID,0,VALID,91.1193,VALID,0,VALID,25.3409,VALID,160,VALID,1.125,
2008-03-16, 02:18:04,VALID,1003.39,VALID,0,VALID,90.3946,VALID,0,VALID,25.3019,VALID,148,VALID,1.21289,
2008-03-16, 02:19:04,VALID,1003.34,VALID,0,VALID,89.5325,VALID,0,VALID,25.3233,VALID,154,VALID,1.50391,
2008-03-16, 02:20:04,VALID,1003.31,VALID,0,VALID,89.3723,VALID,0,VALID,25.3428,VALID,185,VALID,1.26836,
2008-03-16, 02:21:04,VALID,1003.25,VALID,0,VALID,89.235,VALID,0,VALID,25.3428,VALID,176,VALID,0.747266,
2008-03-16, 02:22:04,VALID,1003.23,VALID,0,VALID,89.5173,VALID,0,VALID,25.3604,VALID,172,VALID,0.656641,
2008-03-16, 02:23:04,VALID,1003.19,VALID,0,VALID,89.4563,VALID,0,VALID,25.3604,VALID,166,VALID,0.676172,
2008-03-16, 02:24:04,VALID,1003.17,VALID,0,VALID,89.3266,VALID,0,VALID,25.3818,VALID,179,VALID,0.748047,
2008-03-16, 02:25:04,VALID,1003.12,VALID,0,VALID,89.0748,VALID,0,VALID,25.3604,VALID,191,VALID,0.803516,
2008-03-16, 02:26:04,VALID,1003.13,VALID,0,VALID,89.2884,VALID,0,VALID,25.3409,VALID,214,VALID,0.7625,
2008-03-16, 02:27:04,VALID,1003.14,VALID,0,VALID,89.3037,VALID,0,VALID,25.3214,VALID,214,VALID,0.569531,
2008-03-16, 02:28:04,VALID,1003.14,VALID,0,VALID,89.2579,VALID,0,VALID,25.3214,VALID,214,VALID,0.416797,
2008-03-16, 02:29:04,VALID,1003.16,VALID,0,VALID,89.4563,VALID,0,VALID,25.3233,VALID,214,VALID,0.260938,
2008-03-16, 02:30:04,VALID,1003.15,VALID,0,VALID,89.4257,VALID,0,VALID,25.3019,VALID,214,VALID,0,
2008-03-16, 02:31:04,VALID,1003.17,VALID,0,VALID,89.5097,VALID,0,VALID,25.263,VALID,214,VALID,0.103125,
2008-03-16, 02:32:04,VALID,1003.15,VALID,0,VALID,89.9445,VALID,0,VALID,25.2844,VALID,214,VALID,0,
2008-03-16, 02:33:04,VALID,1003.14,VALID,0,VALID,89.5631,VALID,0,VALID,25.2668,VALID,214,VALID,0.0804688,
2008-03-16, 02:34:04,VALID,1003.12,VALID,0,VALID,89.5707,VALID,0,VALID,25.2435,VALID,214,VALID,0,
2008-03-16, 02:35:04,VALID,1003.1,VALID,0,VALID,89.5936,VALID,0,VALID,25.2046,VALID,203,VALID,0.414844,
2008-03-16, 02:36:04,VALID,1003.08,VALID,0,VALID,89.8224,VALID,0,VALID,25.224,VALID,203,VALID,0.396094,
2008-03-16, 02:37:04,VALID,1003.12,VALID,0,VALID,90.0132,VALID,0,VALID,25.2454,VALID,203,VALID,0.0660156,
2008-03-16, 02:38:04,VALID,1003.14,VALID,0,VALID,90.3336,VALID,0,VALID,25.224,VALID,139,VALID,0.786719,
2008-03-16, 02:39:04,VALID,1003.18,VALID,0,VALID,90.0284,VALID,0,VALID,25.2454,VALID,127,VALID,0.94375,
2008-03-16, 02:40:04,VALID,1003.2,VALID,0,VALID,89.8453,VALID,0,VALID,25.2844,VALID,131,VALID,0.832422,
2008-03-16, 02:41:04,VALID,1003.25,VALID,0,VALID,89.6241,VALID,0,VALID,25.263,VALID,130,VALID,0.791406,
2008-03-16, 02:42:05,VALID,1003.27,VALID,0,VALID,89.7233,VALID,0,VALID,25.3039,VALID,101,VALID,0.689844,
2008-03-16, 02:43:05,VALID,1003.31,VALID,0,VALID,89.8453,VALID,0,VALID,25.3019,VALID,86,VALID,0.814453,
2008-03-16, 02:44:05,VALID,1003.32,VALID,0,VALID,89.441,VALID,0,VALID,25.263,VALID,122,VALID,1.11016,
2008-03-16, 02:45:05,VALID,1003.34,VALID,0,VALID,88.556,VALID,0,VALID,25.3019,VALID,128,VALID,1.7082,
2008-03-16, 02:46:05,VALID,1003.35,VALID,0,VALID,89.0824,VALID,0,VALID,25.3233,VALID,143,VALID,1.09453,
2008-03-16, 02:47:05,VALID,1003.36,VALID,0,VALID,87.076,VALID,0,VALID,25.3039,VALID,153,VALID,2.44844,
2008-03-16, 02:48:05,VALID,1003.38,VALID,0,VALID,87.7321,VALID,0,VALID,25.2844,VALID,177,VALID,1.47617,
2008-03-16, 02:49:05,VALID,1003.37,VALID,0,VALID,85.9622,VALID,0,VALID,25.226,VALID,167,VALID,2.05117,
2008-03-16, 02:50:05,VALID,1003.35,VALID,0,VALID,86.0385,VALID,0,VALID,25.1656,VALID,137,VALID,2.10195,
2008-03-16, 02:51:05,VALID,1003.41,VALID,0,VALID,86.8777,VALID,0,VALID,25.1267,VALID,148,VALID,0.971875,
2008-03-16, 02:52:05,VALID,1003.44,VALID,0,VALID,87.4651,VALID,0,VALID,25.1091,VALID,166,VALID,0.850781,
2008-03-16, 02:53:05,VALID,1003.49,VALID,0,VALID,87.2057,VALID,0.100563,VALID,25.0079,VALID,129,VALID,1.98867,
2008-03-16, 02:54:05,VALID,1003.54,VALID,0,VALID,87.7016,VALID,0,VALID,24.8911,VALID,139,VALID,2.43867,
2008-03-16, 02:55:05,VALID,1003.6,VALID,0,VALID,88.556,VALID,0.100563,VALID,24.7353,VALID,135,VALID,2.45469,
2008-03-16, 02:56:05,VALID,1003.62,VALID,0,VALID,89.3952,VALID,0.100563,VALID,24.6204,VALID,138,VALID,2.0793,
2008-03-16, 02:57:05,VALID,1003.62,VALID,0,VALID,90.3107,VALID,0,VALID,24.5035,VALID,117,VALID,1.86406,
2008-03-16, 02:58:05,VALID,1003.65,VALID,0,VALID,91.1117,VALID,0.100563,VALID,24.3654,VALID,132,VALID,2.48047,
2008-03-16, 02:59:05,VALID,1003.68,VALID,0,VALID,92.0348,VALID,0.100563,VALID,24.3283,VALID,134,VALID,3.25234,
2008-03-16, 03:00:05,VALID,1003.65,VALID,0.5,VALID,92.7062,VALID,0,VALID,24.2291,VALID,138,VALID,2.57188,
2008-03-16, 03:01:05,VALID,1003.58,VALID,1,VALID,93.2554,VALID,0.100563,VALID,24.1336,VALID,123,VALID,2.57852,
2008-03-16, 03:02:05,VALID,1003.52,VALID,1,VALID,93.9039,VALID,0.100563,VALID,24.0168,VALID,148,VALID,2.72031,
2008-03-16, 03:03:05,VALID,1003.5,VALID,0.5,VALID,94.4074,VALID,0.100563,VALID,23.9584,VALID,157,VALID,2.96758,
2008-03-16, 03:04:05,VALID,1003.47,VALID,0.5,VALID,94.7583,VALID,0.100563,VALID,23.8398,VALID,176,VALID,2.52852,
2008-03-16, 03:05:05,VALID,1003.38,VALID,0.5,VALID,95.094,VALID,0.100563,VALID,23.8009,VALID,158,VALID,1.53555,
2008-03-16, 03:06:05,VALID,1003.35,VALID,0,VALID,95.2313,VALID,0.100563,VALID,23.8027,VALID,165,VALID,1.77344,
2008-03-16, 03:07:05,VALID,1003.34,VALID,0.5,VALID,95.3305,VALID,0.100563,VALID,23.7443,VALID,160,VALID,0.792578,
2008-03-16, 03:08:05,VALID,1003.4,VALID,0,VALID,95.5365,VALID,0,VALID,23.7071,VALID,126,VALID,1.3,
2008-03-16, 03:09:05,VALID,1003.47,VALID,0.5,VALID,95.5975,VALID,0,VALID,23.6664,VALID,100,VALID,1.37734,
2008-03-16, 03:10:05,VALID,1003.4,VALID,1,VALID,95.689,VALID,0,VALID,23.6469,VALID,96,VALID,0.613281,
2008-03-16, 03:11:05,VALID,1003.3,VALID,1,VALID,95.8187,VALID,0,VALID,23.608,VALID,67,VALID,0.978125,
2008-03-16, 03:12:05,VALID,1003.21,VALID,1.5,VALID,95.8416,VALID,0,VALID,23.6098,VALID,62,VALID,0.382422,
2008-03-16, 03:13:05,VALID,1003.16,VALID,1,VALID,95.9027,VALID,0,VALID,23.5709,VALID,176,VALID,0.870703,
2008-03-16, 03:14:05,VALID,1003.18,VALID,0.5,VALID,95.9866,VALID,0,VALID,23.5514,VALID,161,VALID,1.30391,
2008-03-16, 03:15:05,VALID,1003.26,VALID,0.5,VALID,96.1163,VALID,0,VALID,23.5302,VALID,175,VALID,1.275,
2008-03-16, 03:16:05,VALID,1003.3,VALID,0.5,VALID,96.2078,VALID,0,VALID,23.5514,VALID,179,VALID,1.29922,
2008-03-16, 03:17:05,VALID,1003.31,VALID,0,VALID,96.2383,VALID,0,VALID,23.5302,VALID,159,VALID,0.675,
2008-03-16, 03:18:05,VALID,1003.34,VALID,0,VALID,96.2917,VALID,0,VALID,23.5302,VALID,191,VALID,1.04375,
2008-03-16, 03:19:05,VALID,1003.34,VALID,0,VALID,96.2765,VALID,0,VALID,23.5107,VALID,169,VALID,1.00469,
2008-03-16, 03:20:05,VALID,1003.3,VALID,0,VALID,96.3375,VALID,0,VALID,23.5107,VALID,176,VALID,0.814844,
2008-03-16, 03:21:05,VALID,1003.29,VALID,0.5,VALID,96.429,VALID,0,VALID,23.5302,VALID,166,VALID,1.42656,
2008-03-16, 03:22:05,VALID,1003.26,VALID,0,VALID,96.4672,VALID,0,VALID,23.5709,VALID,173,VALID,1.57539,
2008-03-16, 03:23:05,VALID,1003.26,VALID,0,VALID,96.4977,VALID,0,VALID,23.5691,VALID,150,VALID,1.31211,
2008-03-16, 03:24:05,VALID,1003.27,VALID,0,VALID,96.5435,VALID,0,VALID,23.5885,VALID,163,VALID,1.04102,
2008-03-16, 03:25:05,VALID,1003.25,VALID,0,VALID,96.5511,VALID,0,VALID,23.608,VALID,167,VALID,0.992969,
2008-03-16, 03:26:05,VALID,1003.25,VALID,0,VALID,96.5587,VALID,0,VALID,23.5885,VALID,175,VALID,1.02344,
2008-03-16, 03:27:05,VALID,1003.25,VALID,0,VALID,96.5664,VALID,0,VALID,23.608,VALID,154,VALID,0.955078,
2008-03-16, 03:28:05,VALID,1003.26,VALID,0,VALID,96.5893,VALID,0,VALID,23.6487,VALID,141,VALID,0.964844,
2008-03-16, 03:29:05,VALID,1003.32,VALID,0,VALID,96.5893,VALID,0,VALID,23.6487,VALID,130,VALID,1.19844,
2008-03-16, 03:30:05,VALID,1003.4,VALID,0,VALID,96.574,VALID,0,VALID,23.6487,VALID,115,VALID,1.00703,
2008-03-16, 03:31:05,VALID,1003.43,VALID,0,VALID,96.574,VALID,0,VALID,23.6293,VALID,115,VALID,0.993359,
2008-03-16, 03:32:05,VALID,1003.44,VALID,0,VALID,96.5969,VALID,0,VALID,23.6487,VALID,116,VALID,1.29766,
2008-03-16, 03:33:05,VALID,1003.47,VALID,0,VALID,96.5969,VALID,0,VALID,23.6275,VALID,118,VALID,0.979688,
2008-03-16, 03:34:05,VALID,1003.46,VALID,0,VALID,96.6427,VALID,0,VALID,23.6664,VALID,106,VALID,1.04805,
2008-03-16, 03:35:05,VALID,1003.47,VALID,0,VALID,96.635,VALID,0,VALID,23.6664,VALID,125,VALID,0.647656,
2008-03-16, 03:36:05,VALID,1003.48,VALID,0,VALID,96.6732,VALID,0,VALID,23.6664,VALID,110,VALID,1.04102,
2008-03-16, 03:37:05,VALID,1003.47,VALID,0,VALID,96.6732,VALID,0,VALID,23.6859,VALID,100,VALID,0.601172,
2008-03-16, 03:38:05,VALID,1003.46,VALID,0,VALID,96.6808,VALID,0,VALID,23.6859,VALID,91,VALID,0.683594,
2008-03-16, 03:39:05,VALID,1003.49,VALID,0,VALID,96.6655,VALID,0,VALID,23.6859,VALID,57,VALID,0.480859,
2008-03-16, 03:40:05,VALID,1003.47,VALID,0,VALID,96.6579,VALID,0,VALID,23.6859,VALID,60,VALID,0.478516,
2008-03-16, 03:41:05,VALID,1003.44,VALID,0,VALID,96.6655,VALID,0,VALID,23.7071,VALID,59,VALID,0.397266,
2008-03-16, 03:42:05,VALID,1003.41,VALID,0,VALID,96.6655,VALID,0,VALID,23.6859,VALID,73,VALID,0.577734,
2008-03-16, 03:43:05,VALID,1003.35,VALID,0,VALID,96.6808,VALID,0,VALID,23.6859,VALID,78,VALID,0.467187,
2008-03-16, 03:44:05,VALID,1003.29,VALID,0,VALID,96.6808,VALID,0,VALID,23.6859,VALID,64,VALID,0.525391,